Flag for Germany Weather past 2 weeks in Fürstenwalde/Spree, Brandenburg, Germany

Now
33 °F

Light snow. Low clouds.


Feels Like: 28 °F
Forecast: 30 / 36 °F
Wind: 5 mph from Southeast

Location: Lindenberg

Current Time: Jan 30, 2015 at 3:59:20 AM

Latest Report: Jan 30, 2015 at 3:00 AM


Visibility: 2 mi

Pressure: 28.79 "Hg

Humidity: 97%

Dew point: 32 °F

Location of Fürstenwalde/SpreeLocation

Historic Weather in Fürstenwalde/Spree — Graph

°F

Fürstenwalde/Spree temperature yesterday

Maximum temperature yesterday: 38 °F (at 2:00 PM)
Minimum temperature yesterday: 32 °F (at 9:00 PM)
Average temperature yesterday: 35 °F

Past Weeks' High & Low Weather Summary

 TemperatureHumidityPressure
High49 °F (Jan 15, 11:00 PM)100% (Jan 17, 10:00 PM)30.32 "Hg (Jan 17, 10:00 PM)
Low24 °F (Jan 23, 11:00 PM)55% (Jan 15, 11:00 PM)28.79 "Hg (Jan 30, 3:00 AM)
Average34 °F92%29.92 "Hg
* Reported Jan 15 3:00 AM — Jan 30 3:00 AM, Fürstenwalde/Spree, Weather by CustomWeather, © 2014

Note: Actual official high and low records may vary slightly from our data, if they occured in-between our weather recording intervals... More about our weather records

Advertising

Fürstenwalde/Spree weather history for previous 24 hours

 ConditionsComfort  
Time TempWeatherWind HumidityBarometerVisibility
3:00 AM
Jan 30
33 °FLight snow. Low clouds.5 mph97%28.79 "Hg2 mi
2:00 AM34 °FLight snow. Overcast.6 mph87%28.82 "Hg5 mi
1:00 AM34 °FOvercast.5 mph84%28.85 "Hg19 mi
12:00 AM33 °FOvercast.5 mph88%28.91 "Hg19 mi
11:00 PM
Jan 29
32 °FOvercast.3 mph90%28.94 "Hg19 mi
9:00 PM32 °FClear.5 mph95%29.00 "Hg25 mi
8:00 PM33 °FClear.5 mph93%29.03 "Hg25 mi
7:00 PM33 °FPassing clouds.3 mph94%29.06 "Hg31 mi
6:00 PM35 °FPassing clouds.5 mph86%29.09 "Hg31 mi
5:00 PM37 °FPassing clouds.6 mph73%29.12 "Hg28 mi
3:00 PM38 °FOvercast.6 mph66%29.15 "Hg25 mi
2:00 PM38 °FOvercast.7 mph65%29.21 "Hg28 mi
1:00 PM37 °FOvercast.8 mph67%29.23 "Hg28 mi
12:00 PM37 °FOvercast.10 mph68%29.26 "Hg28 mi
11:00 AM37 °FPassing clouds.9 mph72%29.26 "Hg25 mi
10:00 AM35 °FPassing clouds.9 mph78%29.29 "Hg28 mi
9:00 AM33 °FPassing clouds.7 mph86%29.29 "Hg28 mi
8:00 AM34 °FOvercast.7 mph87%29.29 "Hg28 mi
7:00 AM34 °FPassing clouds.8 mph88%29.29 "Hg22 mi
6:00 AM34 °FPassing clouds.7 mph90%29.29 "Hg25 mi
5:00 AM34 °FPassing clouds.6 mph94%29.29 "Hg19 mi
4:00 AM35 °FOvercast.7 mph90%29.29 "Hg19 mi
3:00 AM36 °FPassing clouds.8 mph90%29.29 "Hg25 mi
Weather by CustomWeather, © 2014

See weather overviewHow to use our weather pages